SWA2126 KMDW-KMSP

Flight info

Callsign SWA2126
Flight time N/A
Altitude 34000
Route PMPKN NEATO DLLAN RONIC KAMMA KKILR4
Aircraft B738/M-SADE2E3GIJ4RWZ/LB1D1

Departure

Time 2026-05-03 22:53
Airport Chicago Midway International Airport (KMDW)

Arrival

Time N/A
Airport Minneapolis–Saint Paul International Airport / Wold–Chamberlain Field (KMSP)
Time Latitude Longitude Altitude Speed Heading
2026-05-03 22:26 41.78631 -87.74528 628 ft 0 kts 316°
2026-05-03 22:36 41.78623 -87.74517 628 ft 2 kts 316°
2026-05-03 22:36 41.78612 -87.74502 628 ft 2 kts 316°
2026-05-03 22:36 41.78609 -87.74499 628 ft 0 kts 316°
2026-05-03 22:42 41.78610 -87.74500 628 ft 0 kts 316°
2026-05-03 22:42 41.78611 -87.74501 628 ft 0 kts 316°
2026-05-03 22:44 41.78611 -87.74502 628 ft 0 kts 316°
2026-05-03 22:45 41.78607 -87.74496 628 ft 2 kts 316°
2026-05-03 22:46 41.78595 -87.74481 628 ft 2 kts 316°
2026-05-03 22:46 41.78584 -87.74466 628 ft 2 kts 315°
2026-05-03 22:46 41.78574 -87.74449 628 ft 2 kts 284°
2026-05-03 22:46 41.78576 -87.74434 628 ft 1 kts 221°
2026-05-03 22:47 41.78580 -87.74430 628 ft 0 kts 214°
2026-05-03 22:47 41.78565 -87.74444 628 ft 9 kts 216°
2026-05-03 22:47 41.78513 -87.74540 628 ft 13 kts 252°
2026-05-03 22:48 41.78527 -87.74655 628 ft 13 kts 303°
2026-05-03 22:48 41.78597 -87.74717 628 ft 12 kts 341°
2026-05-03 22:48 41.78689 -87.74720 628 ft 19 kts 19°
2026-05-03 22:48 41.78821 -87.74604 628 ft 24 kts 45°
2026-05-03 22:49 41.78926 -87.74473 628 ft 20 kts 43°
2026-05-03 22:49 41.79031 -87.74350 628 ft 19 kts 41°
2026-05-03 22:49 41.79123 -87.74263 628 ft 10 kts 11°
2026-05-03 22:49 41.79126 -87.74263 628 ft 0 kts 11°
2026-05-03 22:51 41.79139 -87.74264 628 ft 0 kts 346°
2026-05-03 22:52 41.79142 -87.74265 628 ft 3 kts 346°
2026-05-03 22:52 41.79170 -87.74295 628 ft 8 kts 296°
2026-05-03 22:52 41.79166 -87.74339 628 ft 0 kts 232°
2026-05-03 22:53 41.79128 -87.74395 628 ft 32 kts 228°
2026-05-03 22:53 41.78786 -87.74835 628 ft 105 kts 224°
2026-05-03 22:53 41.78111 -87.75686 804 ft 150 kts 224°
2026-05-03 22:53 41.77366 -87.76697 1735 ft 146 kts 224°
2026-05-03 22:54 41.76803 -87.77671 2983 ft 127 kts 238°
2026-05-03 22:54 41.76829 -87.78880 3836 ft 142 kts 275°
2026-05-03 22:54 41.77576 -87.80035 4058 ft 205 kts 312°
2026-05-03 22:54 41.79236 -87.80809 3783 ft 278 kts 343°
2026-05-03 22:55 41.81007 -87.81150 5472 ft 251 kts 345°
2026-05-03 22:55 41.82893 -87.81425 5299 ft 305 kts 346°
2026-05-03 22:55 41.85190 -87.81877 4722 ft 362 kts 345°
2026-05-03 22:55 41.87629 -87.82492 4688 ft 346 kts 342°
2026-05-03 22:56 41.89873 -87.83185 4976 ft 308 kts 340°
2026-05-03 22:56 41.91766 -87.83742 5862 ft 250 kts 339°
2026-05-03 22:56 41.93344 -87.84165 6342 ft 219 kts 338°
2026-05-03 22:56 41.94801 -87.84556 6217 ft 213 kts 336°
2026-05-03 22:57 41.96307 -87.84966 5621 ft 230 kts 337°
2026-05-03 22:57 41.97931 -87.85428 5100 ft 245 kts 339°
2026-05-03 22:57 41.99596 -87.85843 4856 ft 246 kts 342°
2026-05-03 22:57 42.01280 -87.86218 4590 ft 245 kts 342°
2026-05-03 22:58 42.02962 -87.86597 4322 ft 244 kts 342°